Regional Weather Roundup
Issued by NWS

Home | Current Version | Previous Version | Graphics & Text | Print | Product List | Glossary On
Versions: 1 2 3 4 5 6 7 8 9 10 11 12 13 14 15 16 17 18 19 20 21 22 23 24 25 26 27 28 29 30 31 32 33 34 35 36 37 38 39 40 41 42 43 44 45 46 47 48 49 50
000
ASUS43 KIND 220909
RWRIN

WEATHER ROUNDUP FOR INDIANA
NATIONAL WEATHER SERVICE INDIANAPOLIS IN
400 AM EST SUN JAN 22 2017

NOTE: "FAIR" INDICATES FEW OR NO CLOUDS BELOW 12,000 FEET WITH NO
SIGNIFICANT WEATHER AND/OR OBSTRUCTIONS TO VISIBILITY.

* - STATION DOES NOT REPORT WEATHER SUCH AS PRECIPITATION OR FOG.

+ - STATION NOT QUALITY CONTROLLED BY THE NATIONAL WEATHER SERVICE.
    USE DATA WITH CAUTION...ESPECIALLY DEWPOINT AND RELATIVE
    HUMIDITY OBSERVATIONS.

INZ001>003-010>013-019-020-221000-
NORTHWEST INDIANA

CITY           SKY/WX    TMP DP  RH WIND       PRES   REMARKS
GARY /AIRPORT/ HVY SNOW  39  39 100 NE5       29.60S VSB 1/4
KNOX *+        CLOUDY    37  32  81 CALM      29.57F VSB<1/4
LA PORTE +     FOG       33  33 100 CALM      29.58F VSB 1/4
MICHIGAN CITY+ FOG       36  36 100 N5        29.59F VSB 1/4
MONTICELLO +   FOG       42  40  95 CALM      29.55F VSB<1/4
RENSSELAER +   MOCLDY    37  37 100 CALM      29.57S FOG
VALPARAISO     FOG       36  36 100 N3        29.58F VSB 1/4

$$

LMZ046-743>745-221000-
SOUTHERN LAKE MICHIGAN

STATION/POSITION TIME  TEMP    WIND        PRES    WAVE
                       AIR SEA DIR/SP/G            HT
                 (UTC) (F)     (DEG/KT/KT) (MB)    (FT)
BURNS HARBOR     0840   35      60/  7/  8 1003.0S
MICHIGAN CITY    0840   36      10/  9/ 10   N/A

$$

INZ004-005-014>016-021>024-221000-
NORTH CENTRAL INDIANA

CITY           SKY/WX    TMP DP  RH WIND       PRES   REMARKS
GOSHEN         FOG       36  34  92 N3        29.57F VSB 1/4
LOGANSPORT +   MOCLDY    45  45 100 E3        29.56F
PERU/GRISSOM   PTCLDY    47  47 100 E7        29.54F
ROCHESTER +    FOG       41  41 100 CALM      29.56F VSB 1/4
SOUTH BEND     FOG       35  35 100 CALM      29.58F VSB 1/4
WARSAW +       FOG       37  37 100 CALM      29.57F VSB 1/4

$$

INZ006>009-017-018-025>027-221000-
NORTHEAST INDIANA

CITY           SKY/WX    TMP DP  RH WIND       PRES   REMARKS
ANGOLA *+      CLOUDY    43  34  70 CALM      29.57F VSB 0
AUBURN +       RAIN      46  45  93 CALM      29.59F
FORT WAYNE     LGT RAIN  51  48  89 SE8       29.60F
HUNTINGTON +   LGT RAIN  49  48  96 SE6       29.57F
KENDALLVILLE + MOCLDY    47  47 100 SW6       29.59F

$$

INZ028-029-035-036-043>045-051>053-221000-
WEST CENTRAL INDIANA

CITY           SKY/WX    TMP DP  RH WIND       PRES   REMARKS
CRAWFORDSVL +  CLEAR     45  45 100 E3        29.54F
GREENCASTLE +  CLEAR     45  45 100 NE5       29.54S
LAFAYETTE      FOG       44  44 100 N5        29.54F VSB 1/2
TERRE HAUTE    FOG       41  39  93 NE5       29.52F VSB 3/4

$$

INZ030>032-037>040-046>048-054>057-064-065-221000-
CENTRAL INDIANA

CITY           SKY/WX    TMP DP  RH WIND       PRES   REMARKS
CP ATTERBURY + MOCLDY    41  39  93 CALM      29.56R VSB 1/2
FISHERS *+     CLEAR     48  48 100 E5        29.56F
FRANKFORT +    CLEAR     49  48  95 SE7       29.56F
GREENWOOD *+   CLEAR     49  49 100 E5        29.55F
INDIANAPOLIS   PTCLDY    48  46  93 NE7       29.54F
-EAGLE CREEK   CLEAR     47  45  93 NE5       29.55F
KOKOMO +       PTCLDY    48  47  96 E7        29.56F
MARION +       CLOUDY    48  46  93 E6        29.57F
MT COMFORT *+  MOCLDY    45  45 100 N8        29.57S
SHELBYVILLE    CLEAR     47  44  90 E8        29.54F
ZIONSVILLE +   CLEAR     48  46  93 CALM      29.57F

$$

INZ033-034-041-042-049-050-058-059-221000-
EAST CENTRAL INDIANA

CITY           SKY/WX    TMP DP  RH WIND       PRES   REMARKS
MUNCIE         PTCLDY    52  47  83 NE9       29.58F

$$

INZ060-061-067>069-081>083-085>088-221000-
SOUTHWEST INDIANA

CITY           SKY/WX    TMP DP  RH WIND       PRES   REMARKS
EVANSVILLE     PTCLDY    51  46  83 CALM      29.52R
HUNTINGBURG *+ PTCLDY    51  48  89 CALM      29.53S
WASHINGTON +   CLEAR     46  45  94 CALM      29.52S

$$

INZ062-063-066-070>080-084-089>092-221000-
SOUTH CENTRAL AND SOUTHEAST INDIANA

CITY           SKY/WX    TMP DP  RH WIND       PRES   REMARKS
BLOOMINGTON    FOG       43  41  93 CALM      29.54R VSB 1/2
MADISON *+     CLEAR     50  46  87 SE7       29.58R
NORTH VERNON + CLEAR    N/A N/A N/A NE3       29.55F
SEYMOUR +      FOG       43  43 100 CALM      29.55R VSB 1

$$





USA.gov is the U.S. government's official web portal to all federal, state and local government web resources and services.